sat.trackr.live / text

‹ back to catalog

STARLINK-5190

NORAD 54092 · 2022-136AT

PAYLOAD ACTIVE UNKNOWN

§ Identity

Operator
Country
US
Launch date
2022-10-20
Launch site
AFETR
Launch vehicle
Mass (kg)
RCS (m²)

Purposes: comms

External: N2YO · Heavens-Above · Gunter

§ Orbital elements

Epoch: 2026-05-24T09:30:17.726400Z

Period
91.24 min
Inclination
53.1725°
Eccentricity
0.0003917
Mean motion
15.78306728 rev/d
Perigee alt
332.6 km
Apogee alt
337.9 km
Semi-major
6,713.4 km
B*
4.1472e-4
RAAN
159.4214°
Arg perigee
25.4938°
Mean anomaly
334.6276°
Rev number
20,114

§ Raw data

STARLINK-51901 54092U 22136AT  26144.39603850  .00072800  00000+0  41472-3 0  99922 54092  53.1725 159.4214 0003917  25.4938 334.6276 15.78306728201148

JSON: /api/v1/satellites/54092 · /tle

For live sub-satellite position, see the globe view (requires WebGL).

§ Visibility from observer

Set your observer location to see the next 7 days of passes ≥ 10°. The values pass through the URL so the page stays shareable.

No JS? Fill the form by hand. The geolocation button needs JavaScript.